Location: Unspecified
(43.4354°N, 0.0000°E)
Time: 21:54:35
(UTC+00:00)

Vanguard 2 Rocket - Pass Details

Date: 25 June 2019
Orbit: 554 x 3326 km, 32.9° (Epoch: 15 July)

Event Time Altitude Azimuth Distance (km) Brightness Sun altitude
Rises 01:05:32 0° 269° (W) 4,911 10.5 -21.6°
Reaches altitude 10° 01:08:28 10° 263° (W) 4,245 10.1 -21.5°
Maximum altitude 01:19:55 44° 196° (SSW) 3,302 9.2 -20.8°
Drops below altitude 10° 01:37:03 10° 134° (SE) 6,195 10.9 -19.7°
Sets 01:42:29 0° 128° (SE) 7,303 11.4 -19.3°
